User: anonymous   Login
Location: Unspecified
(0.0000°N, 0.0000°E)
Time: 22:29:03
(UTC+00:00)
Language:

NOSS 3-3 (A) - Orbit

View from above orbital plane
View from above orbital plane
View from above satellite
View from above satellite

Ground track
Ground track

The orbit data is extracted from the following two-line orbital elements,

1 28537U 05004A   19090.80624402 0.00000000  00000-0  00000-0 0    02
2 28537  63.4187 324.2942 0328549 358.3792   1.6208 13.40780656    07
Epoch (UTC): 31 March 2019 19:20:59
Eccentricity: 0.0328549
inclination: 63.4187°
perigee height: 860 km
apogee height: 1352 km
right ascension of ascending node: 324.2942°
argument of perigee: 358.3792°
revolutions per day: 13.40780656
mean anomaly at epoch: 1.6208°
orbit number at epoch: 0

The dashed part of the orbit path shows where the satellite is in the earth's shadow,  

DLR